EW9240 Weather Reports


Display with metric or nautical units.
time (UTC)temp
F
wind
direction
speed
MPH
gust
MPH
rain 1hr
in
rain 24hr
in
rain mn
in
humidity
%
barometer
mb
20260901083045 61 203 0.0 2.0 0.00 0.00 0.00 78 1008.3
20260901081530 61 215 0.0 4.0 0.00 0.00 0.00 78 1008.2
20260901080015 62 206 2.0 5.0 0.00 0.00 0.00 77 1008.2
20260901074601 63 198 0.0 8.0 0.00 0.00 0.00 75 1007.9
20260901073040 64 205 1.0 6.0 0.00 0.00 0.00 73 1007.8
20260901071523 65 224 2.0 6.0 0.00 0.00 0.00 71 1007.6
20260901070006 66 146 0.0 1.0 0.00 0.00 0.00 69 1007.3
20260901064558 67 208 0.0 1.0 0.00 0.00 0.00 68 1007.1
20260901063059 67 226 0.0 2.0 0.00 0.00 0.00 67 1006.9
20260901061532 68 214 0.0 0.0 0.00 0.00 0.00 66 1006.8
20260901060020 69 217 0.0 6.0 0.00 0.00 0.00 65 1006.5
20260901054546 70 221 2.0 6.0 0.00 0.00 0.00 64 1006.3
20260901053034 70 212 1.0 5.0 0.00 0.00 0.00 63 1006.4
20260901051527 70 211 3.0 7.0 0.00 0.00 0.00 62 1006.3
20260901050005 70 250 0.0 0.0 0.00 0.00 0.00 61 1006.1
20260901044602 70 254 0.0 0.0 0.00 0.00 0.00 60 1006.0
20260901043043 71 130 0.0 0.0 0.00 0.00 0.00 59 1005.8
20260901041529 72 130 0.0 0.0 0.00 0.00 0.00 57 1005.6
20260901040012 73 130 0.0 0.0 0.00 0.00 0.00 55 1005.4
20260901034603 74 130 0.0 0.0 0.00 0.00 0.00 52 1005.2
20260901033047 76 130 0.0 0.0 0.00 0.00 0.00 49 1004.9
20260901031534 77 129 0.0 0.0 0.00 0.00 0.00 48 1004.8
20260901030021 78 220 0.0 0.0 0.00 0.00 0.00 45 1004.8
20260901024505 79 214 0.0 2.0 0.00 0.00 0.00 43 1004.9
20260901023054 80 214 1.0 4.0 0.00 0.00 0.00 43 1004.7
20260901021517 81 214 0.0 2.0 0.00 0.00 0.00 45 1004.7
20260901020003 82 217 1.0 4.0 0.00 0.00 0.00 45 1004.6
20260901014555 82 198 0.0 5.0 0.00 0.00 0.00 45 1004.5
20260901013041 82 217 1.0 5.0 0.00 0.00 0.00 45 1004.5
20260901011500 84 198 0.0 2.0 0.00 0.00 0.00 44 1004.5
20260901010054 84 203 0.0 3.0 0.00 0.00 0.00 43 1004.5
20260901004541 84 227 0.0 2.0 0.00 0.00 0.00 41 1004.6
20260901003018 84 280 0.0 2.0 0.00 0.00 0.00 40 1004.6
20260901001605 84 221 0.0 3.0 0.00 0.00 0.00 41 1004.6
20260901000105 84 215 0.0 1.0 0.00 0.00 0.00 41 1004.6
20260831234532 84 356 0.0 4.0 0.00 0.00 0.00 41 1004.7
20260831233015 83 321 0.0 4.0 0.00 0.00 0.00 41 1004.7
20260831231604 83 319 1.0 5.0 0.00 0.00 0.00 41 1004.8
20260831230053 83 292 2.0 4.0 0.00 0.00 0.00 41 1004.9
20260831224543 82 280 0.0 5.0 0.00 0.00 0.00 43 1005.0
20260831223022 82 73 0.0 2.0 0.00 0.00 0.00 43 1005.2
20260831221602 81 44 0.0 5.0 0.00 0.00 0.00 44 1005.4
20260831220047 80 54 0.0 3.0 0.00 0.00 0.00 45 1005.6
20260831214532 80 300 0.0 2.0 0.00 0.00 0.00 45 1005.8
20260831213015 79 129 0.0 3.0 0.00 0.00 0.00 47 1006.0
20260831211603 78 214 0.0 4.0 0.00 0.00 0.00 49 1006.1
20260831210043 77 276 1.0 4.0 0.00 0.00 0.00 51 1006.2
20260831204528 77 12 1.0 4.0 0.00 0.00 0.00 50 1006.2
20260831203012 76 292 2.0 4.0 0.00 0.00 0.00 52 1006.4
20260831201600 76 326 1.0 5.0 0.00 0.00 0.00 52 1006.5
20260831200040 74 217 0.0 4.0 0.00 0.00 0.00 55 1006.8
20260831194538 73 73 1.0 5.0 0.00 0.00 0.00 55 1007.1
20260831193009 73 319 1.0 6.0 0.00 0.00 0.00 57 1007.2
20260831191556 72 1 1.0 5.0 0.00 0.00 0.00 58 1007.4
20260831190038 71 336 0.0 4.0 0.00 0.00 0.00 60 1007.7
20260831184519 70 323 1.0 5.0 0.00 0.00 0.00 60 1007.9
20260831183002 70 326 1.0 5.0 0.00 0.00 0.00 61 1008.2
20260831181545 68 334 0.0 4.0 0.00 0.00 0.00 63 1008.3
20260831180052 68 337 0.0 3.0 0.00 0.00 0.00 65 1008.5
20260831174534 67 57 1.0 4.0 0.00 0.00 0.00 66 1008.6
20260831173019 66 357 0.0 6.0 0.00 0.00 0.00 69 1008.7
20260831171606 65 283 0.0 4.0 0.00 0.00 0.00 70 1008.8
20260831170049 65 305 0.0 2.0 0.00 0.00 0.00 72 1008.9
20260831164529 64 334 2.0 4.0 0.00 0.00 0.00 73 1008.9
20260831163016 63 290 0.0 4.0 0.00 0.00 0.00 75 1009.0
20260831161603 61 307 1.0 4.0 0.00 0.00 0.00 78 1009.3
20260831160047 60 283 0.0 3.0 0.00 0.00 0.00 81 1009.5
20260831154530 58 288 0.0 3.0 0.00 0.00 0.00 84 1009.6
20260831153023 57 277 0.0 4.0 0.00 0.00 0.00 85 1009.7
20260831151605 57 274 0.0 3.0 0.00 0.00 0.00 86 1009.7
20260831150052 56 307 0.0 2.0 0.00 0.00 0.00 88 1009.7
20260831144542 55 288 0.0 3.0 0.00 0.00 0.00 90 1009.9
20260831143043 53 300 0.0 0.0 0.00 0.00 0.00 89 1009.9
20260831141535 52 300 0.0 0.0 0.00 0.00 0.00 90 1009.9
20260831140105 50 300 0.0 0.0 0.00 0.00 0.00 90 1009.9
20260831134513 50 295 0.0 0.0 0.00 0.00 0.00 90 1010.0
20260831133113 51 295 0.0 0.0 0.00 0.00 0.00 90 1009.9
20260831131549 51 295 0.0 0.0 0.00 0.00 0.00 89 1010.1
20260831130043 51 295 0.0 0.0 0.00 0.00 0.00 89 1010.1
20260831124521 51 295 0.0 0.0 0.00 0.00 0.00 89 1010.2
20260831123003 51 295 0.0 0.0 0.00 0.00 0.00 89 1010.2
20260831121552 52 295 0.0 0.0 0.00 0.00 0.00 89 1010.4
20260831120037 52 295 0.0 0.0 0.00 0.00 0.00 88 1010.5
20260831114529 52 295 0.0 0.0 0.00 0.00 0.00 88 1010.5
20260831113007 52 295 0.0 0.0 0.00 0.00 0.00 88 1010.5
20260831111558 53 295 0.0 0.0 0.00 0.00 0.00 88 1010.7
20260831110039 53 295 0.0 0.0 0.00 0.00 0.00 87 1010.8
20260831104525 53 295 0.0 0.0 0.00 0.00 0.00 87 1010.9
20260831103009 54 295 0.0 0.0 0.00 0.00 0.00 87 1010.9
20260831101616 54 295 0.0 0.0 0.00 0.00 0.00 86 1010.9
20260831100056 54 296 0.0 0.0 0.00 0.00 0.00 86 1011.0
20260831094531 54 297 0.0 0.0 0.00 0.00 0.00 85 1011.2
20260831093015 55 297 0.0 0.0 0.00 0.00 0.00 85 1011.3
20260831091602 55 297 0.0 0.0 0.00 0.00 0.00 85 1011.5
20260831090007 55 297 0.0 0.0 0.00 0.00 0.00 84 1011.5
20260831084558 56 297 0.0 0.0 0.00 0.00 0.00 84 1011.7